Location: Grudziądz
(53.4833°N, 18.7667°E)
Time: 01:37:15
(UTC+01:00)

ISS - Visible Passes

Search period start: 23 January 2019 00:00
Search period end: 02 February 2019 00:00
Orbit: 404 x 411 km, 51.6° (Epoch: 23 January)

Date Brightness Start Highest point End Pass type
(mag) Time Alt. Az. Time Alt. Az. Time Alt. Az.
23 Jan -1.1 18:40:38 10° SSW 18:41:04 12° S 18:41:04 12° S visible
24 Jan -1.5 17:50:25 10° SSE 17:51:51 12° SE 17:52:03 12° SE visible
24 Jan -0.6 19:24:38 10° SW 19:24:46 11° SW 19:24:46 11° SW visible
25 Jan -2.2 18:33:36 10° SW 18:35:40 25° S 18:35:40 25° S visible
26 Jan -2.1 17:42:44 10° SSW 17:45:18 21° SSE 17:46:30 17° ESE visible
26 Jan -1.2 19:18:10 10° WSW 19:19:13 18° WSW 19:19:13 18° WSW visible
27 Jan -3.2 18:26:56 10° SW 18:30:00 43° SSE 18:30:00 43° SSE visible
28 Jan -2.7 17:35:47 10° SW 17:38:48 33° SSE 17:40:44 18° ESE visible
28 Jan -1.7 19:11:48 10° WSW 19:13:26 26° WSW 19:13:26 26° WSW visible
29 Jan -3.6 18:20:27 10° WSW 18:23:42 57° S 18:24:08 51° SE visible
29 Jan -0.2 19:56:50 10° W 19:56:51 10° W 19:56:51 10° W visible
30 Jan -3.2 17:29:09 10° WSW 17:32:21 48° SSE 17:34:49 15° E visible
30 Jan -2.2 19:05:26 10° W 19:07:31 35° WSW 19:07:31 35° WSW visible
31 Jan -3.6 18:14:01 10° W 18:17:18 64° S 18:18:11 43° ESE visible
31 Jan -0.4 19:50:30 10° W 19:50:54 13° W 19:50:54 13° W visible
01 Feb -3.5 17:22:38 10° WSW 17:25:53 60° S 17:28:51 12° E visible
01 Feb -2.7 18:59:02 10° W 19:01:34 41° WSW 19:01:34 41° WSW visible
